Coolangatta Observation History
Time Wind Speed Temp Pressure Rel. Hum Rain
25/10:30pm SW 4-5 kts 22.3°c 1014.0 hPa 94% 2.6mm
25/10:00pm CALM 0-3 kts 22.5°c 1014.4 hPa 93% 2.6mm
25/09:55pm SW 2-3 kts 22.6°c 1014.4 hPa 93% 2.6mm
25/09:39pm SSW 4-5 kts 22.4°c 1014.5 hPa 93% 2.6mm
25/09:30pm S 4-6 kts 22.3°c 1014.5 hPa 92% 2.2mm
25/09:00pm S 4-6 kts 22.5°c 1014.7 hPa 94% 2.2mm
25/08:30pm SW 5 kts 22.1°c 1014.4 hPa 93% 2.2mm
25/08:00pm S 4-5 kts 22.1°c 1014.3 hPa 93% 2.2mm
25/07:30pm S 5-6 kts 22.4°c 1014.1 hPa 92% 2.2mm
25/07:00pm SSW 6-8 kts 22.5°c 1014.0 hPa 91% 2.2mm
25/06:46pm SSW 7-10 kts 22.6°c 1013.9 hPa 92% 2.2mm
25/06:30pm S 9-12 kts 22.5°c 1013.9 hPa 92% 1.8mm
25/06:20pm S 7-12 kts 22.8°c 1013.9 hPa 89% 0.6mm
25/06:00pm S 7-10 kts 24.0°c 1013.7 hPa 82% 0.2mm
25/05:30pm SSW 7-9 kts 24.2°c 1013.4 hPa 81% 0.2mm
25/05:00pm SSW 7-10 kts 24.6°c 1013.2 hPa 80% 0.2mm
25/04:30pm SW 7-9 kts 24.0°c 1013.2 hPa 84% 0.2mm
25/04:00pm SSW 7-10 kts 24.5°c 1013.3 hPa 80% 0.2mm
25/03:30pm ESE 10-13 kts 27.1°c 1013.2 hPa 68% 0.2mm
25/03:00pm SE 10-14 kts 27.0°c 1013.4 hPa 66% 0.2mm
25/02:30pm ESE 10-14 kts 27.3°c 1013.5 hPa 64% 0.2mm
25/02:00pm ESE 11-16 kts 27.4°c 1013.8 hPa 61% 0.2mm
25/01:30pm ESE 11-15 kts 27.5°c 1014.1 hPa 63% 0.2mm
25/01:00pm SE 10-13 kts 27.4°c 1014.5 hPa 65% 0.2mm
25/12:30pm SSE 9-14 kts 26.8°c 1014.9 hPa 68% 0.2mm
25/12:00pm S 9-12 kts 26.3°c 1015.1 hPa 73% 0.2mm
25/11:30am S 10-14 kts 25.7°c 1015.4 hPa 73% 0.2mm
25/11:00am S 10-14 kts 26.1°c 1015.7 hPa 76% 0.0mm
25/10:30am S 9-13 kts 25.2°c 1016.0 hPa 80% 0.0mm
25/10:00am S 6-9 kts 24.3°c 1016.3 hPa 86% 0.0mm
25/09:30am SSW 6-9 kts 22.8°c 1016.5 hPa 91% 0.0mm
25/09:00am SSW 5-7 kts 22.7°c 1016.6 hPa 95% 39.0mm
25/08:53am SSW 6-10 kts 22.4°c 1016.5 hPa 95% 39.0mm
25/08:30am S 9-12 kts 21.6°c 1016.4 hPa 92% 38.4mm
25/08:02am S 9-12 kts 22.1°c 1016.2 hPa 89% 36.0mm
25/08:00am S 8-12 kts 22.0°c 1016.1 hPa 87% 36.0mm
25/07:30am S 7-10 kts 22.1°c 1015.9 hPa 88% 35.8mm
25/07:00am SSW 8-11 kts 22.3°c 1015.7 hPa 84% 35.8mm
25/06:30am S 9-13 kts 22.3°c 1015.6 hPa 86% 35.8mm
25/06:00am SSW 7-11 kts 21.6°c 1015.5 hPa 88% 35.8mm
25/05:30am SSW 7-10 kts 21.3°c 1015.4 hPa 89% 35.8mm
25/05:00am S 4-6 kts 20.9°c 1015.1 hPa 90% 35.8mm
25/04:30am SSW 5-7 kts 20.9°c 1015.1 hPa 91% 35.8mm
25/04:00am SSW 8-11 kts 20.9°c 1015.1 hPa 91% 35.8mm
25/03:30am SW 7-10 kts 21.0°c 1015.0 hPa 92% 35.8mm
25/03:00am SSW 6-10 kts 21.1°c 1015.2 hPa 92% 35.8mm
25/02:30am SSW 7-11 kts 21.0°c 1015.5 hPa 91% 35.6mm
25/02:00am SSW 6-10 kts 21.0°c 1015.8 hPa 91% 35.6mm
25/01:30am SSW 7-11 kts 21.1°c 1016.1 hPa 90% 35.6mm
25/01:00am SW 7-10 kts 20.9°c 1016.4 hPa 91% 35.6mm
25/12:30am SSW 7-9 kts 20.8°c 1016.6 hPa 91% 35.6mm
25/12:00am SSW 7-11 kts 21.0°c 1017.0 hPa 91% 35.6mm
Time Wind Speed Temp Pressure Rel. Hum Rain
24/11:30pm SSW 7-10 kts 20.9°c 1017.3 hPa 93% 35.6mm
24/11:00pm SSW 7-11 kts 20.9°c 1017.5 hPa 93% 35.6mm
24/10:30pm SSW 9-13 kts 20.8°c 1017.6 hPa 94% 35.6mm
24/10:00pm S 7-11 kts 20.9°c 1017.8 hPa 93% 35.0mm
24/09:30pm SW 7-10 kts 20.9°c 1018.0 hPa 94% 34.8mm
24/09:00pm SW 7-10 kts 20.7°c 1017.9 hPa 95% 34.8mm
24/08:35pm WSW 6-8 kts 20.8°c 1018.1 hPa 95% 34.4mm
24/08:30pm WSW 6-9 kts 20.8°c 1018.2 hPa 95% 34.4mm
24/08:00pm SSW 8-13 kts 20.8°c 1018.1 hPa 94% 32.2mm
24/07:52pm SSW 9-13 kts 20.9°c 1018.0 hPa 94% 30.8mm
24/07:30pm SSW 9-14 kts 21.0°c 1017.8 hPa 93% 30.4mm
24/07:00pm S 11-17 kts 21.4°c 1017.4 hPa 90% 30.4mm
24/06:30pm SSW 9-16 kts 21.8°c 1016.9 hPa 89% 30.4mm
24/06:00pm S 10-16 kts 22.1°c 1016.6 hPa 89% 30.4mm
24/05:30pm S 9-14 kts 22.5°c 1016.2 hPa 89% 30.4mm
24/05:00pm SSW 9-13 kts 22.5°c 1016.2 hPa 90% 30.4mm
24/04:44pm SSW 8-10 kts 22.7°c 1016.1 hPa 91% 30.4mm
24/04:30pm SSW 8-12 kts 23.0°c 1016.1 hPa 88% 30.2mm
24/04:25pm SSW 7-11 kts 23.3°c 1016.1 hPa 87% 29.8mm
24/04:00pm S 6-9 kts 24.1°c 1015.9 hPa 78% 29.0mm
24/03:30pm S 8-11 kts 24.2°c 1016.0 hPa 82% 29.0mm
24/03:00pm S 8-11 kts 23.9°c 1016.1 hPa 90% 29.0mm
24/02:30pm S 8-10 kts 23.3°c 1016.3 hPa 90% 29.0mm
24/02:00pm S 8-11 kts 23.5°c 1016.6 hPa 84% 28.8mm
24/01:30pm S 9-13 kts 23.7°c 1016.9 hPa 85% 28.8mm
24/01:00pm S 8-11 kts 23.1°c 1017.3 hPa 88% 28.8mm
24/12:30pm S 8-11 kts 22.5°c 1017.6 hPa 93% 28.8mm
24/12:16pm SSW 6-9 kts 22.4°c 1017.8 hPa 96% 28.6mm
24/12:00pm S 8-13 kts 21.9°c 1017.8 hPa 96% 28.0mm
24/11:49am SSE 8-12 kts 21.9°c 1017.6 hPa 97% 27.8mm
24/11:47am SSE 8-12 kts 21.9°c 1017.6 hPa 97% 27.8mm
24/11:30am SE 10-12 kts 21.6°c 1017.6 hPa 96% 26.8mm
24/11:00am SSE 7-11 kts 21.0°c 1018.8 hPa 93% 18.4mm
24/10:30am SE 11-14 kts 21.7°c 1018.8 hPa 91% 3.8mm
24/10:15am S 8-10 kts 22.3°c 1018.6 hPa 89% 0.4mm
24/10:00am S 9-11 kts 22.7°c 1018.6 hPa 84% 0.0mm
24/09:30am SSW 6-8 kts 24.0°c 1018.6 hPa 80% 0.0mm
24/09:00am SSW 7-10 kts 23.4°c 1018.5 hPa 85% 7.4mm
24/08:30am SSW 6-11 kts 23.2°c 1018.5 hPa 83% 7.4mm
24/08:00am SSW 6-8 kts 22.6°c 1018.2 hPa 87% 7.4mm
24/07:30am S 6-9 kts 21.9°c 1018.1 hPa 89% 7.4mm
24/07:00am S 5-7 kts 21.7°c 1018.0 hPa 91% 7.4mm
24/06:30am S 4-7 kts 21.1°c 1018.0 hPa 94% 7.4mm
24/06:00am S 4-6 kts 20.7°c 1017.9 hPa 94% 7.4mm
24/05:30am S 4-5 kts 20.6°c 1017.7 hPa 94% 7.4mm
24/05:00am SW 4-7 kts 20.7°c 1017.6 hPa 94% 7.4mm
24/04:30am SSW 4-5 kts 20.7°c 1017.4 hPa 94% 7.2mm
24/04:00am SSW 5-7 kts 20.7°c 1017.2 hPa 94% 7.2mm
24/03:30am SSW 4-5 kts 20.9°c 1017.2 hPa 94% 6.6mm
24/03:00am SSW 7-9 kts 20.9°c 1017.3 hPa 94% 6.4mm
24/02:30am SSW 5-7 kts 21.0°c 1017.6 hPa 94% 6.2mm
24/02:00am WSW 4-6 kts 20.9°c 1017.6 hPa 94% 6.2mm
24/01:30am WSW 5-7 kts 20.9°c 1018.0 hPa 94% 6.2mm
24/01:20am SW 6-9 kts 21.0°c 1018.0 hPa 94% 6.2mm
24/01:02am SW 5-7 kts 21.0°c 1018.2 hPa 94% 6.0mm
24/01:00am SW 5-7 kts 21.0°c 1018.3 hPa 94% 5.4mm
24/12:35am WSW 4-7 kts 20.9°c 1018.5 hPa 94% 4.6mm
24/12:30am WSW 6-7 kts 21.0°c 1018.4 hPa 94% 4.6mm
24/12:09am SSW 7-10 kts 21.0°c 1018.7 hPa 93% 3.4mm
24/12:02am SSW 6-7 kts 21.2°c 1018.9 hPa 92% 2.2mm
24/12:00am SSW 6-8 kts 21.2°c 1018.9 hPa 92% 2.2mm
Time Wind Speed Temp Pressure Rel. Hum Rain
23/11:39pm S 5-8 kts 21.4°c 1019.3 hPa 90% 1.2mm
23/11:30pm SSW 6-9 kts 21.4°c 1019.0 hPa 90% 0.2mm
23/11:00pm SSW 7-10 kts 21.4°c 1019.5 hPa 89% 0.2mm
23/10:30pm SSW 7-11 kts 21.6°c 1019.6 hPa 87% 0.2mm
23/10:00pm S 7-12 kts 21.9°c 1019.8 hPa 86% 0.2mm
23/09:30pm SSW 7-9 kts 21.8°c 1019.7 hPa 87% 0.2mm
23/09:00pm SSW 6-8 kts 21.9°c 1019.9 hPa 87% 0.2mm
23/08:30pm S 6-8 kts 22.0°c 1019.9 hPa 86% 0.2mm
23/08:00pm S 7-9 kts 22.0°c 1019.6 hPa 85% 0.2mm
23/07:30pm SW 7-11 kts 22.0°c 1019.5 hPa 85% 0.2mm
23/07:00pm SSW 7-11 kts 21.8°c 1019.3 hPa 86% 0.2mm
23/06:30pm SSW 8-11 kts 21.4°c 1018.9 hPa 87% 0.2mm
23/06:00pm S 8-11 kts 22.0°c 1018.9 hPa 79% 0.0mm
23/05:30pm S 7-10 kts 22.4°c 1019.0 hPa 83% 0.0mm
23/05:00pm S 7-8 kts 22.3°c 1019.1 hPa 86% 0.0mm
23/04:30pm SSW 8-11 kts 22.5°c 1019.0 hPa 83% 0.0mm
23/04:00pm S 10-15 kts 22.8°c 1018.9 hPa 78% 0.0mm
23/03:30pm S 10-14 kts 24.1°c 1018.9 hPa 65% 0.0mm
23/03:00pm SSE 11-17 kts 24.6°c 1018.9 hPa 68% 0.0mm
23/02:30pm SSE 11-15 kts 25.0°c 1019.0 hPa 66% 0.0mm
23/02:00pm SSE 11-16 kts 25.1°c 1019.4 hPa 59% 0.0mm
23/01:30pm SE 13-16 kts 25.5°c 1019.8 hPa 60% 0.0mm
23/01:00pm SE 12-16 kts 25.7°c 1020.1 hPa 58% 0.0mm
23/12:30pm SE 12-17 kts 25.4°c 1020.6 hPa 59% 0.0mm
23/12:00pm SE 13-16 kts 25.5°c 1020.6 hPa 60% 0.0mm
23/11:30am SE 11-16 kts 25.2°c 1021.0 hPa 59% 0.0mm
23/11:00am SE 13-19 kts 25.2°c 1021.1 hPa 62% 0.0mm
23/10:30am SE 14-19 kts 25.4°c 1021.2 hPa 61% 0.0mm
23/10:00am SE 14-18 kts 25.5°c 1021.3 hPa 62% 0.0mm
23/09:30am SE 12-18 kts 25.7°c 1021.2 hPa 64% 0.0mm
23/09:00am SE 14-19 kts 25.3°c 1021.2 hPa 61% 5.2mm
23/08:30am SE 14-19 kts 25.2°c 1021.1 hPa 65% 5.2mm
23/08:00am SSW 7-11 kts 23.1°c 1021.1 hPa 79% 5.2mm
23/07:30am SSW 8-12 kts 22.2°c 1021.0 hPa 84% 5.2mm
23/07:00am S 5-8 kts 21.3°c 1020.8 hPa 88% 5.2mm
23/06:30am SW 5-8 kts 20.7°c 1020.6 hPa 88% 5.0mm
23/06:00am SW 4-5 kts 20.4°c 1020.2 hPa 94% 5.0mm
23/05:30am W 6-7 kts 20.2°c 1020.0 hPa 94% 5.0mm
23/05:15am SW 7-9 kts 20.4°c 1020.0 hPa 94% 4.8mm
23/05:00am S 5-8 kts 20.6°c 1019.8 hPa 93% 4.0mm
23/04:43am S 6-8 kts 20.7°c 1019.7 hPa 91% 1.4mm
23/04:30am SSE 9-14 kts 20.7°c 1019.4 hPa 89% 0.4mm
23/04:00am S 7-11 kts 22.3°c 1019.0 hPa 74% 0.0mm
23/03:30am SSW 7-11 kts 22.1°c 1019.3 hPa 74% 0.0mm
23/03:00am SSW 7-9 kts 22.2°c 1019.5 hPa 73% 0.0mm
23/02:30am SSW 8-11 kts 22.6°c 1019.4 hPa 70% 0.0mm
23/02:00am S 8-11 kts 22.7°c 1019.6 hPa 69% 0.0mm
23/01:30am SSW 5-7 kts 22.7°c 1020.0 hPa 70% 0.0mm
23/01:00am SSE 9-14 kts 23.8°c 1020.3 hPa 65% 0.0mm
23/12:30am SE 10-14 kts 24.0°c 1020.5 hPa 64% 0.0mm
23/12:00am SSE 10-13 kts 24.0°c 1020.6 hPa 63% 0.0mm